owner,sensor,date,latitude,longitude,sea_surface_height_above_sea_level,qcFlag 
TCOON,ioos:station:TCOON:013:1,2017-04-01T01:36:00Z,27.4847,-97.3181,0.728,1111122 
TCOON,ioos:station:TCOON:013:1,2017-04-01T02:18:00Z,27.4847,-97.3181,0.727,1111122 
TCOON,ioos:station:TCOON:013:1,2017-04-01T03:18:00Z,27.4847,-97.3181,0.727,1111122 
TCOON,ioos:station:TCOON:013:1,2017-04-01T04:36:00Z,27.4847,-97.3181,0.732,1111122 
TCOON,ioos:station:TCOON:013:1,2017-04-01T07:54:00Z,27.4847,-97.3181,0.727,1111122 
TCOON,ioos:station:TCOON:013:1,2017-04-01T08:24:00Z,27.4847,-97.3181,0.724,1111122 
TCOON,ioos:station:TCOON:013:1,2017-04-01T09:24:00Z,27.4847,-97.3181,0.716,1111122 
TCOON,ioos:station:TCOON:013:1,2017-04-01T10:18:00Z,27.4847,-97.3181,0.717,1111122 
TCOON,ioos:station:TCOON:013:1,2017-04-01T11:18:00Z,27.4847,-97.3181,0.712,1111122 
TCOON,ioos:station:TCOON:013:1,2017-04-01T12:18:00Z,27.4847,-97.3181,0.705,1111122 
TCOON,ioos:station:TCOON:013:1,2017-04-01T13:18:00Z,27.4847,-97.3181,0.708,1111122 
TCOON,ioos:station:TCOON:013:1,2017-04-01T14:18:00Z,27.4847,-97.3181,0.702,1111122 
TCOON,ioos:station:TCOON:013:1,2017-04-01T15:18:00Z,27.4847,-97.3181,0.699,1111122 
TCOON,ioos:station:TCOON:013:1,2017-04-01T16:18:00Z,27.4847,-97.3181,0.704,1111122 
TCOON,ioos:station:TCOON:013:1,2017-04-01T17:18:00Z,27.4847,-97.3181,0.715,1111122 
TCOON,ioos:station:TCOON:013:1,2017-04-02T03:30:00Z,27.4847,-97.3181,0.77,1111122 
TCOON,ioos:station:TCOON:013:1,2017-04-02T04:18:00Z,27.4847,-97.3181,0.772,1111122 
TCOON,ioos:station:TCOON:013:1,2017-04-02T05:24:00Z,27.4847,-97.3181,0.779,1111122 
TCOON,ioos:station:TCOON:013:1,2017-04-02T06:24:00Z,27.4847,-97.3181,0.782,1111122 
TCOON,ioos:station:TCOON:013:1,2017-04-02T07:18:00Z,27.4847,-97.3181,0.784,1111122 
TCOON,ioos:station:TCOON:013:1,2017-04-02T08:24:00Z,27.4847,-97.3181,0.782,1111122 
TCOON,ioos:station:TCOON:013:1,2017-04-02T18:00:00Z,27.4847,-97.3181,0.801,1111122 
TCOON,ioos:station:TCOON:013:1,2017-04-02T18:48:00Z,27.4847,-97.3181,0.809,1111122 
TCOON,ioos:station:TCOON:013:1,2017-04-02T19:18:00Z,27.4847,-97.3181,0.814,1111122 
TCOON,ioos:station:TCOON:013:1,2017-04-02T20:18:00Z,27.4847,-97.3181,0.827,1111122 
TCOON,ioos:station:TCOON:013:1,2017-04-02T21:18:00Z,27.4847,-97.3181,0.844,1111122 
TCOON,ioos:station:TCOON:013:1,2017-04-02T22:18:00Z,27.4847,-97.3181,0.848,1111122 
TCOON,ioos:station:TCOON:013:1,2017-04-02T23:18:00Z,27.4847,-97.3181,0.853,1111122 
TCOON,ioos:station:TCOON:013:1,2017-04-03T00:18:00Z,27.4847,-97.3181,0.862,1111122 
TCOON,ioos:station:TCOON:013:1,2017-04-03T01:18:00Z,27.4847,-97.3181,0.868,1111122 
TCOON,ioos:station:TCOON:013:1,2017-04-03T02:18:00Z,27.4847,-97.3181,0.874,1111122 
TCOON,ioos:station:TCOON:013:1,2017-04-03T03:18:00Z,27.4847,-97.3181,0.875,1111122 
TCOON,ioos:station:TCOON:013:1,2017-04-03T04:18:00Z,27.4847,-97.3181,0.88,1111122 
TCOON,ioos:station:TCOON:013:1,2017-04-03T05:24:00Z,27.4847,-97.3181,0.884,1111122 
TCOON,ioos:station:TCOON:013:1,2017-04-03T06:18:00Z,27.4847,-97.3181,0.89,1111122 
TCOON,ioos:station:TCOON:013:1,2017-04-03T07:18:00Z,27.4847,-97.3181,0.894,1111122 
TCOON,ioos:station:TCOON:013:1,2017-04-03T08:18:00Z,27.4847,-97.3181,0.89,1111122 
TCOON,ioos:station:TCOON:013:1,2017-04-03T09:18:00Z,27.4847,-97.3181,0.891,1111122 
TCOON,ioos:station:TCOON:013:1,2017-04-03T10:18:00Z,27.4847,-97.3181,0.888,1111122 
TCOON,ioos:station:TCOON:013:1,2017-04-03T11:18:00Z,27.4847,-97.3181,0.88,1111122 
TCOON,ioos:station:TCOON:013:1,2017-04-03T13:24:00Z,27.4847,-97.3181,0.843,1111122 
TCOON,ioos:station:TCOON:013:1,2017-04-03T14:18:00Z,27.4847,-97.3181,0.827,1111122 
TCOON,ioos:station:TCOON:013:1,2017-04-03T15:18:00Z,27.4847,-97.3181,0.811,1111122 
TCOON,ioos:station:TCOON:013:1,2017-04-03T16:18:00Z,27.4847,-97.3181,0.815,1111122 
TCOON,ioos:station:TCOON:013:1,2017-04-03T17:18:00Z,27.4847,-97.3181,0.813,1111122 
TCOON,ioos:station:TCOON:013:1,2017-04-03T18:18:00Z,27.4847,-97.3181,0.812,1111122 
TCOON,ioos:station:TCOON:013:1,2017-04-03T19:18:00Z,27.4847,-97.3181,0.818,1111122 
TCOON,ioos:station:TCOON:013:1,2017-04-03T20:18:00Z,27.4847,-97.3181,0.817,1111122 
TCOON,ioos:station:TCOON:013:1,2017-04-03T21:18:00Z,27.4847,-97.3181,0.821,1111122 
TCOON,ioos:station:TCOON:013:1,2017-04-03T22:18:00Z,27.4847,-97.3181,0.831,1111122 
TCOON,ioos:station:TCOON:013:1,2017-04-04T00:18:00Z,27.4847,-97.3181,0.84,1111122 
TCOON,ioos:station:TCOON:013:1,2017-04-04T01:18:00Z,27.4847,-97.3181,0.844,1111122 
TCOON,ioos:station:TCOON:013:1,2017-04-04T02:18:00Z,27.4847,-97.3181,0.836,1111122 
TCOON,ioos:station:TCOON:013:1,2017-04-04T03:18:00Z,27.4847,-97.3181,0.843,1111122 
TCOON,ioos:station:TCOON:013:1,2017-04-04T04:18:00Z,27.4847,-97.3181,0.839,1111122 
TCOON,ioos:station:TCOON:013:1,2017-04-04T05:18:00Z,27.4847,-97.3181,0.838,1111122 
TCOON,ioos:station:TCOON:013:1,2017-04-04T06:18:00Z,27.4847,-97.3181,0.829,1111122 
TCOON,ioos:station:TCOON:013:1,2017-04-04T07:18:00Z,27.4847,-97.3181,0.831,1111122 
TCOON,ioos:station:TCOON:013:1,2017-04-04T08:18:00Z,27.4847,-97.3181,0.826,1111122 
TCOON,ioos:station:TCOON:013:1,2017-04-04T09:24:00Z,27.4847,-97.3181,0.819,1111122 
TCOON,ioos:station:TCOON:013:1,2017-04-04T10:18:00Z,27.4847,-97.3181,0.813,1111122 
TCOON,ioos:station:TCOON:013:1,2017-04-04T11:18:00Z,27.4847,-97.3181,0.809,1111122 
TCOON,ioos:station:TCOON:013:1,2017-04-04T12:24:00Z,27.4847,-97.3181,0.805,1111122 
TCOON,ioos:station:TCOON:013:1,2017-04-04T14:00:00Z,27.4847,-97.3181,0.792,1111122 
TCOON,ioos:station:TCOON:013:1,2017-04-04T17:18:00Z,27.4847,-97.3181,0.783,1111122 
TCOON,ioos:station:TCOON:013:1,2017-04-04T21:48:00Z,27.4847,-97.3181,0.761,1111122 
TCOON,ioos:station:TCOON:013:1,2017-04-06T14:18:00Z,27.4847,-97.3181,0.714,1111122 
TCOON,ioos:station:TCOON:013:1,2017-04-06T15:18:00Z,27.4847,-97.3181,0.709,1111122 
TCOON,ioos:station:TCOON:013:1,2017-04-06T16:18:00Z,27.4847,-97.3181,0.703,1111122 
TCOON,ioos:station:TCOON:013:1,2017-04-06T17:18:00Z,27.4847,-97.3181,0.69,1111122 
TCOON,ioos:station:TCOON:013:1,2017-04-06T18:18:00Z,27.4847,-97.3181,0.685,1111122 
TCOON,ioos:station:TCOON:013:1,2017-04-06T19:18:00Z,27.4847,-97.3181,0.679,1111122 
TCOON,ioos:station:TCOON:013:1,2017-04-06T20:18:00Z,27.4847,-97.3181,0.675,1111122 
TCOON,ioos:station:TCOON:013:1,2017-04-06T21:18:00Z,27.4847,-97.3181,0.669,1111122 
TCOON,ioos:station:TCOON:013:1,2017-04-06T22:18:00Z,27.4847,-97.3181,0.669,1111122 
TCOON,ioos:station:TCOON:013:1,2017-04-06T23:18:00Z,27.4847,-97.3181,0.667,1111122 
TCOON,ioos:station:TCOON:013:1,2017-04-07T00:18:00Z,27.4847,-97.3181,0.668,1111122 
TCOON,ioos:station:TCOON:013:1,2017-04-07T01:18:00Z,27.4847,-97.3181,0.668,1111122 
TCOON,ioos:station:TCOON:013:1,2017-04-07T02:18:00Z,27.4847,-97.3181,0.665,1111122 
TCOON,ioos:station:TCOON:013:1,2017-04-07T03:18:00Z,27.4847,-97.3181,0.665,1111122 
TCOON,ioos:station:TCOON:013:1,2017-04-07T04:18:00Z,27.4847,-97.3181,0.665,1111122 
TCOON,ioos:station:TCOON:013:1,2017-04-07T05:18:00Z,27.4847,-97.3181,0.666,1111122 
TCOON,ioos:station:TCOON:013:1,2017-04-07T06:24:00Z,27.4847,-97.3181,0.668,1111122 
TCOON,ioos:station:TCOON:013:1,2017-04-07T07:18:00Z,27.4847,-97.3181,0.67,1111122 
TCOON,ioos:station:TCOON:013:1,2017-04-07T08:18:00Z,27.4847,-97.3181,0.669,1111122 
TCOON,ioos:station:TCOON:013:1,2017-04-07T09:18:00Z,27.4847,-97.3181,0.667,1111122 
TCOON,ioos:station:TCOON:013:1,2017-04-07T10:18:00Z,27.4847,-97.3181,0.666,1111122 
TCOON,ioos:station:TCOON:013:1,2017-04-07T11:18:00Z,27.4847,-97.3181,0.665,1111122 
TCOON,ioos:station:TCOON:013:1,2017-04-07T12:18:00Z,27.4847,-97.3181,0.665,1111122 
TCOON,ioos:station:TCOON:013:1,2017-04-07T13:18:00Z,27.4847,-97.3181,0.666,1111122 
TCOON,ioos:station:TCOON:013:1,2017-04-07T14:18:00Z,27.4847,-97.3181,0.666,1111122 
TCOON,ioos:station:TCOON:013:1,2017-04-07T15:18:00Z,27.4847,-97.3181,0.663,1111122 
TCOON,ioos:station:TCOON:013:1,2017-04-07T16:18:00Z,27.4847,-97.3181,0.662,1111122 
TCOON,ioos:station:TCOON:013:1,2017-04-07T17:18:00Z,27.4847,-97.3181,0.657,1111122 
TCOON,ioos:station:TCOON:013:1,2017-04-07T18:18:00Z,27.4847,-97.3181,0.656,1111122 
TCOON,ioos:station:TCOON:013:1,2017-04-07T19:18:00Z,27.4847,-97.3181,0.651,1111122 
TCOON,ioos:station:TCOON:013:1,2017-04-07T20:18:00Z,27.4847,-97.3181,0.644,1111122 
TCOON,ioos:station:TCOON:013:1,2017-04-07T21:18:00Z,27.4847,-97.3181,0.643,1111122 
TCOON,ioos:station:TCOON:013:1,2017-04-07T22:18:00Z,27.4847,-97.3181,0.639,1111122 
TCOON,ioos:station:TCOON:013:1,2017-04-07T23:18:00Z,27.4847,-97.3181,0.638,1111122 
TCOON,ioos:station:TCOON:013:1,2017-04-08T00:18:00Z,27.4847,-97.3181,0.636,1111122 
TCOON,ioos:station:TCOON:013:1,2017-04-08T01:18:00Z,27.4847,-97.3181,0.633,1111122 
TCOON,ioos:station:TCOON:013:1,2017-04-08T02:18:00Z,27.4847,-97.3181,0.63,1111122 
TCOON,ioos:station:TCOON:013:1,2017-04-08T03:18:00Z,27.4847,-97.3181,0.631,1111122 
TCOON,ioos:station:TCOON:013:1,2017-04-08T04:18:00Z,27.4847,-97.3181,0.632,1111122 
TCOON,ioos:station:TCOON:013:1,2017-04-08T05:18:00Z,27.4847,-97.3181,0.633,1111122 
TCOON,ioos:station:TCOON:013:1,2017-04-08T06:18:00Z,27.4847,-97.3181,0.634,1111122 
TCOON,ioos:station:TCOON:013:1,2017-04-08T07:18:00Z,27.4847,-97.3181,0.634,1111122 
TCOON,ioos:station:TCOON:013:1,2017-04-08T08:18:00Z,27.4847,-97.3181,0.633,1111122 
TCOON,ioos:station:TCOON:013:1,2017-04-08T09:18:00Z,27.4847,-97.3181,0.634,1111122 
TCOON,ioos:station:TCOON:013:1,2017-04-08T10:18:00Z,27.4847,-97.3181,0.633,1111122 
TCOON,ioos:station:TCOON:013:1,2017-04-08T11:18:00Z,27.4847,-97.3181,0.635,1111122 
TCOON,ioos:station:TCOON:013:1,2017-04-08T12:18:00Z,27.4847,-97.3181,0.636,1111122 
TCOON,ioos:station:TCOON:013:1,2017-04-08T13:18:00Z,27.4847,-97.3181,0.637,1111122 
TCOON,ioos:station:TCOON:013:1,2017-04-08T14:18:00Z,27.4847,-97.3181,0.635,1111122 
TCOON,ioos:station:TCOON:013:1,2017-04-08T15:18:00Z,27.4847,-97.3181,0.635,1111122 
TCOON,ioos:station:TCOON:013:1,2017-04-08T16:18:00Z,27.4847,-97.3181,0.635,1111122 
TCOON,ioos:station:TCOON:013:1,2017-04-08T17:18:00Z,27.4847,-97.3181,0.632,1111122 
TCOON,ioos:station:TCOON:013:1,2017-04-08T18:18:00Z,27.4847,-97.3181,0.63,1111122 
TCOON,ioos:station:TCOON:013:1,2017-04-08T19:18:00Z,27.4847,-97.3181,0.625,1111122 
TCOON,ioos:station:TCOON:013:1,2017-04-08T20:18:00Z,27.4847,-97.3181,0.613,1111122 
TCOON,ioos:station:TCOON:013:1,2017-04-08T21:18:00Z,27.4847,-97.3181,0.611,1111122 
TCOON,ioos:station:TCOON:013:1,2017-04-08T22:18:00Z,27.4847,-97.3181,0.609,1111122 
TCOON,ioos:station:TCOON:013:1,2017-04-08T23:18:00Z,27.4847,-97.3181,0.606,1111122 
TCOON,ioos:station:TCOON:013:1,2017-04-09T00:18:00Z,27.4847,-97.3181,0.604,1111122 
TCOON,ioos:station:TCOON:013:1,2017-04-09T01:18:00Z,27.4847,-97.3181,0.598,1111122 
TCOON,ioos:station:TCOON:013:1,2017-04-09T02:18:00Z,27.4847,-97.3181,0.594,1111122 
TCOON,ioos:station:TCOON:013:1,2017-04-09T03:18:00Z,27.4847,-97.3181,0.592,1111122 
TCOON,ioos:station:TCOON:013:1,2017-04-09T04:18:00Z,27.4847,-97.3181,0.594,1111122 
TCOON,ioos:station:TCOON:013:1,2017-04-09T05:18:00Z,27.4847,-97.3181,0.597,1111122 
TCOON,ioos:station:TCOON:013:1,2017-04-09T06:18:00Z,27.4847,-97.3181,0.597,1111122 
TCOON,ioos:station:TCOON:013:1,2017-04-09T07:18:00Z,27.4847,-97.3181,0.599,1111122 
TCOON,ioos:station:TCOON:013:1,2017-04-09T08:18:00Z,27.4847,-97.3181,0.6,1111122 
TCOON,ioos:station:TCOON:013:1,2017-04-09T09:18:00Z,27.4847,-97.3181,0.602,1111122 
TCOON,ioos:station:TCOON:013:1,2017-04-09T10:18:00Z,27.4847,-97.3181,0.6,1111122 
TCOON,ioos:station:TCOON:013:1,2017-04-09T11:18:00Z,27.4847,-97.3181,0.603,1111122 
TCOON,ioos:station:TCOON:013:1,2017-04-09T12:18:00Z,27.4847,-97.3181,0.605,1111122 
TCOON,ioos:station:TCOON:013:1,2017-04-09T13:18:00Z,27.4847,-97.3181,0.61,1111122 
TCOON,ioos:station:TCOON:013:1,2017-04-09T14:12:00Z,27.4847,-97.3181,0.612,1111122 
TCOON,ioos:station:TCOON:013:1,2017-04-09T15:18:00Z,27.4847,-97.3181,0.612,1111122 
TCOON,ioos:station:TCOON:013:1,2017-04-09T16:18:00Z,27.4847,-97.3181,0.616,1111122 
TCOON,ioos:station:TCOON:013:1,2017-04-09T17:18:00Z,27.4847,-97.3181,0.617,1111122 
TCOON,ioos:station:TCOON:013:1,2017-04-09T18:18:00Z,27.4847,-97.3181,0.608,1111122 
TCOON,ioos:station:TCOON:013:1,2017-04-09T19:12:00Z,27.4847,-97.3181,0.603,1111122 
TCOON,ioos:station:TCOON:013:1,2017-04-09T20:18:00Z,27.4847,-97.3181,0.598,1111122 
TCOON,ioos:station:TCOON:013:1,2017-04-09T21:18:00Z,27.4847,-97.3181,0.595,1111122 
TCOON,ioos:station:TCOON:013:1,2017-04-09T22:18:00Z,27.4847,-97.3181,0.593,1111122 
TCOON,ioos:station:TCOON:013:1,2017-04-09T23:18:00Z,27.4847,-97.3181,0.582,1111122 
TCOON,ioos:station:TCOON:013:1,2017-04-10T00:12:00Z,27.4847,-97.3181,0.58,1111122 
TCOON,ioos:station:TCOON:013:1,2017-04-10T01:18:00Z,27.4847,-97.3181,0.576,1111122 
TCOON,ioos:station:TCOON:013:1,2017-04-10T02:18:00Z,27.4847,-97.3181,0.575,1111122 
TCOON,ioos:station:TCOON:013:1,2017-04-10T03:18:00Z,27.4847,-97.3181,0.574,1111122 
TCOON,ioos:station:TCOON:013:1,2017-04-10T04:18:00Z,27.4847,-97.3181,0.576,1111122 
TCOON,ioos:station:TCOON:013:1,2017-04-10T05:18:00Z,27.4847,-97.3181,0.583,1111122 
TCOON,ioos:station:TCOON:013:1,2017-04-10T06:18:00Z,27.4847,-97.3181,0.586,1111122 
TCOON,ioos:station:TCOON:013:1,2017-04-10T07:18:00Z,27.4847,-97.3181,0.588,1111122 
TCOON,ioos:station:TCOON:013:1,2017-04-10T08:18:00Z,27.4847,-97.3181,0.588,1111122 
TCOON,ioos:station:TCOON:013:1,2017-04-10T09:18:00Z,27.4847,-97.3181,0.592,1111122 
TCOON,ioos:station:TCOON:013:1,2017-04-10T10:18:00Z,27.4847,-97.3181,0.594,1111122 
TCOON,ioos:station:TCOON:013:1,2017-04-10T11:18:00Z,27.4847,-97.3181,0.6,1111122 
TCOON,ioos:station:TCOON:013:1,2017-04-10T12:18:00Z,27.4847,-97.3181,0.606,1111122 
TCOON,ioos:station:TCOON:013:1,2017-04-10T13:18:00Z,27.4847,-97.3181,0.613,1111122 
TCOON,ioos:station:TCOON:013:1,2017-04-10T14:18:00Z,27.4847,-97.3181,0.622,1111122 
TCOON,ioos:station:TCOON:013:1,2017-04-10T15:18:00Z,27.4847,-97.3181,0.629,1111122 
TCOON,ioos:station:TCOON:013:1,2017-04-10T16:18:00Z,27.4847,-97.3181,0.637,1111122 
TCOON,ioos:station:TCOON:013:1,2017-04-10T17:18:00Z,27.4847,-97.3181,0.64,1111122 
TCOON,ioos:station:TCOON:013:1,2017-04-10T18:18:00Z,27.4847,-97.3181,0.638,1111122 
TCOON,ioos:station:TCOON:013:1,2017-04-10T20:18:00Z,27.4847,-97.3181,0.633,1111122 
TCOON,ioos:station:TCOON:013:1,2017-04-10T21:18:00Z,27.4847,-97.3181,0.626,1111122 
TCOON,ioos:station:TCOON:013:1,2017-04-10T22:18:00Z,27.4847,-97.3181,0.619,1111122 
TCOON,ioos:station:TCOON:013:1,2017-04-10T23:18:00Z,27.4847,-97.3181,0.617,1111122 
TCOON,ioos:station:TCOON:013:1,2017-04-11T00:18:00Z,27.4847,-97.3181,0.613,1111122 
TCOON,ioos:station:TCOON:013:1,2017-04-11T01:18:00Z,27.4847,-97.3181,0.612,1111122 
TCOON,ioos:station:TCOON:013:1,2017-04-11T02:18:00Z,27.4847,-97.3181,0.607,1111122 
TCOON,ioos:station:TCOON:013:1,2017-04-11T03:18:00Z,27.4847,-97.3181,0.603,1111122 
TCOON,ioos:station:TCOON:013:1,2017-04-11T04:18:00Z,27.4847,-97.3181,0.609,1111122 
TCOON,ioos:station:TCOON:013:1,2017-04-11T05:18:00Z,27.4847,-97.3181,0.611,1111122 
TCOON,ioos:station:TCOON:013:1,2017-04-11T06:18:00Z,27.4847,-97.3181,0.615,1111122 
TCOON,ioos:station:TCOON:013:1,2017-04-11T07:18:00Z,27.4847,-97.3181,0.619,1111122 
TCOON,ioos:station:TCOON:013:1,2017-04-11T08:18:00Z,27.4847,-97.3181,0.619,1111122 
TCOON,ioos:station:TCOON:013:1,2017-04-11T09:18:00Z,27.4847,-97.3181,0.615,1111122 
TCOON,ioos:station:TCOON:013:1,2017-04-11T10:18:00Z,27.4847,-97.3181,0.624,1111122 
TCOON,ioos:station:TCOON:013:1,2017-04-11T11:18:00Z,27.4847,-97.3181,0.622,1111122 
TCOON,ioos:station:TCOON:013:1,2017-04-11T12:12:00Z,27.4847,-97.3181,0.625,1111122 
TCOON,ioos:station:TCOON:013:1,2017-04-11T13:12:00Z,27.4847,-97.3181,0.625,1111122 
TCOON,ioos:station:TCOON:013:1,2017-04-11T14:18:00Z,27.4847,-97.3181,0.622,1111122 
TCOON,ioos:station:TCOON:013:1,2017-04-11T15:18:00Z,27.4847,-97.3181,0.615,1111122 
TCOON,ioos:station:TCOON:013:1,2017-04-11T16:18:00Z,27.4847,-97.3181,0.628,1111122 
TCOON,ioos:station:TCOON:013:1,2017-04-11T17:18:00Z,27.4847,-97.3181,0.636,1111122 
TCOON,ioos:station:TCOON:013:1,2017-04-11T18:18:00Z,27.4847,-97.3181,0.646,1111122 
TCOON,ioos:station:TCOON:013:1,2017-04-11T19:18:00Z,27.4847,-97.3181,0.654,1111122 
TCOON,ioos:station:TCOON:013:1,2017-04-11T20:18:00Z,27.4847,-97.3181,0.656,1111122 
TCOON,ioos:station:TCOON:013:1,2017-04-11T21:18:00Z,27.4847,-97.3181,0.665,1111122 
TCOON,ioos:station:TCOON:013:1,2017-04-11T22:18:00Z,27.4847,-97.3181,0.668,1111122 
TCOON,ioos:station:TCOON:013:1,2017-04-11T23:18:00Z,27.4847,-97.3181,0.669,1111122 
TCOON,ioos:station:TCOON:013:1,2017-04-12T00:18:00Z,27.4847,-97.3181,0.646,1111122 
TCOON,ioos:station:TCOON:013:1,2017-04-12T01:18:00Z,27.4847,-97.3181,0.675,1111122 
TCOON,ioos:station:TCOON:013:1,2017-04-12T02:18:00Z,27.4847,-97.3181,0.626,1111122 
TCOON,ioos:station:TCOON:013:1,2017-04-12T03:18:00Z,27.4847,-97.3181,0.667,1111122 
TCOON,ioos:station:TCOON:013:1,2017-04-12T04:18:00Z,27.4847,-97.3181,0.657,1111122 
TCOON,ioos:station:TCOON:013:1,2017-04-12T05:18:00Z,27.4847,-97.3181,0.662,1111122 
TCOON,ioos:station:TCOON:013:1,2017-04-12T06:18:00Z,27.4847,-97.3181,0.659,1111122 
TCOON,ioos:station:TCOON:013:1,2017-04-12T07:18:00Z,27.4847,-97.3181,0.669,1111122 
TCOON,ioos:station:TCOON:013:1,2017-04-12T08:18:00Z,27.4847,-97.3181,0.69,1111122 
TCOON,ioos:station:TCOON:013:1,2017-04-12T09:18:00Z,27.4847,-97.3181,0.701,1111122 
TCOON,ioos:station:TCOON:013:1,2017-04-12T10:18:00Z,27.4847,-97.3181,0.708,1111122 
TCOON,ioos:station:TCOON:013:1,2017-04-12T11:18:00Z,27.4847,-97.3181,0.711,1111122 
TCOON,ioos:station:TCOON:013:1,2017-04-12T12:18:00Z,27.4847,-97.3181,0.71,1111122 
TCOON,ioos:station:TCOON:013:1,2017-04-12T13:18:00Z,27.4847,-97.3181,0.709,1111122 
TCOON,ioos:station:TCOON:013:1,2017-04-12T14:18:00Z,27.4847,-97.3181,0.71,1111122 
TCOON,ioos:station:TCOON:013:1,2017-04-12T15:24:00Z,27.4847,-97.3181,0.715,1111122 
TCOON,ioos:station:TCOON:013:1,2017-04-12T16:30:00Z,27.4847,-97.3181,0.71,1111122 
TCOON,ioos:station:TCOON:013:1,2017-04-12T17:18:00Z,27.4847,-97.3181,0.711,1111122 
TCOON,ioos:station:TCOON:013:1,2017-04-12T18:30:00Z,27.4847,-97.3181,0.713,1111122 
TCOON,ioos:station:TCOON:013:1,2017-04-13T07:36:00Z,27.4847,-97.3181,0.721,1111122 
TCOON,ioos:station:TCOON:013:1,2017-04-13T09:24:00Z,27.4847,-97.3181,0.713,1111122 
TCOON,ioos:station:TCOON:013:1,2017-04-13T10:18:00Z,27.4847,-97.3181,0.708,1111122 
TCOON,ioos:station:TCOON:013:1,2017-04-13T11:18:00Z,27.4847,-97.3181,0.705,1111122 
TCOON,ioos:station:TCOON:013:1,2017-04-13T12:18:00Z,27.4847,-97.3181,0.706,1111122 
TCOON,ioos:station:TCOON:013:1,2017-04-13T13:18:00Z,27.4847,-97.3181,0.706,1111122 
TCOON,ioos:station:TCOON:013:1,2017-04-13T14:18:00Z,27.4847,-97.3181,0.707,1111122 
TCOON,ioos:station:TCOON:013:1,2017-04-13T15:18:00Z,27.4847,-97.3181,0.714,1111122 
TCOON,ioos:station:TCOON:013:1,2017-04-13T16:24:00Z,27.4847,-97.3181,0.723,1111122 
TCOON,ioos:station:TCOON:013:1,2017-04-14T11:24:00Z,27.4847,-97.3181,0.726,1111122 
TCOON,ioos:station:TCOON:013:1,2017-04-14T12:18:00Z,27.4847,-97.3181,0.726,1111122 
TCOON,ioos:station:TCOON:013:1,2017-04-14T13:18:00Z,27.4847,-97.3181,0.725,1111122 
TCOON,ioos:station:TCOON:013:1,2017-04-15T03:36:00Z,27.4847,-97.3181,0.764,1111122 
TCOON,ioos:station:TCOON:013:1,2017-04-15T23:36:00Z,27.4847,-97.3181,0.785,1111122 
TCOON,ioos:station:TCOON:013:1,2017-04-16T00:18:00Z,27.4847,-97.3181,0.789,1111122 
TCOON,ioos:station:TCOON:013:1,2017-04-16T01:24:00Z,27.4847,-97.3181,0.791,1111122 
TCOON,ioos:station:TCOON:013:1,2017-04-16T02:18:00Z,27.4847,-97.3181,0.796,1111122 
TCOON,ioos:station:TCOON:013:1,2017-04-16T03:30:00Z,27.4847,-97.3181,0.797,1111122 
TCOON,ioos:station:TCOON:013:1,2017-04-16T04:18:00Z,27.4847,-97.3181,0.8,1111122 
TCOON,ioos:station:TCOON:013:1,2017-04-16T05:18:00Z,27.4847,-97.3181,0.798,1111122 
TCOON,ioos:station:TCOON:013:1,2017-04-16T06:18:00Z,27.4847,-97.3181,0.796,1111122 
TCOON,ioos:station:TCOON:013:1,2017-04-16T07:18:00Z,27.4847,-97.3181,0.795,1111122 
TCOON,ioos:station:TCOON:013:1,2017-04-16T08:18:00Z,27.4847,-97.3181,0.79,1111122 
TCOON,ioos:station:TCOON:013:1,2017-04-16T22:00:00Z,27.4847,-97.3181,0.788,1111122 
TCOON,ioos:station:TCOON:013:1,2017-04-16T22:24:00Z,27.4847,-97.3181,0.789,1111122 
TCOON,ioos:station:TCOON:013:1,2017-04-16T23:24:00Z,27.4847,-97.3181,0.79,1111122 
TCOON,ioos:station:TCOON:013:1,2017-04-17T00:36:00Z,27.4847,-97.3181,0.794,1111122 
TCOON,ioos:station:TCOON:013:1,2017-04-17T01:18:00Z,27.4847,-97.3181,0.794,1111122 
TCOON,ioos:station:TCOON:013:1,2017-04-17T02:18:00Z,27.4847,-97.3181,0.796,1111122 
TCOON,ioos:station:TCOON:013:1,2017-04-17T03:18:00Z,27.4847,-97.3181,0.8,1111122 
TCOON,ioos:station:TCOON:013:1,2017-04-17T04:18:00Z,27.4847,-97.3181,0.801,1111122 
TCOON,ioos:station:TCOON:013:1,2017-04-17T05:24:00Z,27.4847,-97.3181,0.8,1111122 
TCOON,ioos:station:TCOON:013:1,2017-04-17T06:18:00Z,27.4847,-97.3181,0.8,1111122 
TCOON,ioos:station:TCOON:013:1,2017-04-17T07:18:00Z,27.4847,-97.3181,0.796,1111122 
TCOON,ioos:station:TCOON:013:1,2017-04-17T08:30:00Z,27.4847,-97.3181,0.784,1111122 
TCOON,ioos:station:TCOON:013:1,2017-04-17T14:00:00Z,27.4847,-97.3181,0.766,1111122 
TCOON,ioos:station:TCOON:013:1,2017-04-17T22:24:00Z,27.4847,-97.3181,0.798,1111122 
TCOON,ioos:station:TCOON:013:1,2017-04-17T23:24:00Z,27.4847,-97.3181,0.802,1111122 
TCOON,ioos:station:TCOON:013:1,2017-04-18T00:30:00Z,27.4847,-97.3181,0.801,1111122 
TCOON,ioos:station:TCOON:013:1,2017-04-18T01:18:00Z,27.4847,-97.3181,0.802,1111122 
TCOON,ioos:station:TCOON:013:1,2017-04-18T02:18:00Z,27.4847,-97.3181,0.8,1111122 
TCOON,ioos:station:TCOON:013:1,2017-04-18T03:18:00Z,27.4847,-97.3181,0.806,1111122 
TCOON,ioos:station:TCOON:013:1,2017-04-18T04:18:00Z,27.4847,-97.3181,0.809,1111122 
TCOON,ioos:station:TCOON:013:1,2017-04-18T05:18:00Z,27.4847,-97.3181,0.808,1111122 
TCOON,ioos:station:TCOON:013:1,2017-04-18T06:18:00Z,27.4847,-97.3181,0.815,1111122 
TCOON,ioos:station:TCOON:013:1,2017-04-18T07:18:00Z,27.4847,-97.3181,0.812,1111122 
TCOON,ioos:station:TCOON:013:1,2017-04-18T08:18:00Z,27.4847,-97.3181,0.808,1111122 
TCOON,ioos:station:TCOON:013:1,2017-04-18T09:18:00Z,27.4847,-97.3181,0.799,1111122 
TCOON,ioos:station:TCOON:013:1,2017-04-18T10:18:00Z,27.4847,-97.3181,0.799,1111122 
TCOON,ioos:station:TCOON:013:1,2017-04-18T11:24:00Z,27.4847,-97.3181,0.796,1111122 
TCOON,ioos:station:TCOON:013:1,2017-04-18T12:24:00Z,27.4847,-97.3181,0.789,1111122 
TCOON,ioos:station:TCOON:013:1,2017-04-18T17:48:00Z,27.4847,-97.3181,0.793,1111122 
TCOON,ioos:station:TCOON:013:1,2017-04-18T18:36:00Z,27.4847,-97.3181,0.805,1111122 
TCOON,ioos:station:TCOON:013:1,2017-04-18T19:36:00Z,27.4847,-97.3181,0.807,1111122 
TCOON,ioos:station:TCOON:013:1,2017-04-18T20:18:00Z,27.4847,-97.3181,0.813,1111122 
TCOON,ioos:station:TCOON:013:1,2017-04-18T21:18:00Z,27.4847,-97.3181,0.819,1111122 
TCOON,ioos:station:TCOON:013:1,2017-04-18T22:18:00Z,27.4847,-97.3181,0.825,1111122 
TCOON,ioos:station:TCOON:013:1,2017-04-18T23:18:00Z,27.4847,-97.3181,0.821,1111122 
TCOON,ioos:station:TCOON:013:1,2017-04-19T00:18:00Z,27.4847,-97.3181,0.822,1111122 
TCOON,ioos:station:TCOON:013:1,2017-04-19T01:18:00Z,27.4847,-97.3181,0.817,1111122 
TCOON,ioos:station:TCOON:013:1,2017-04-19T02:18:00Z,27.4847,-97.3181,0.821,1111122 
TCOON,ioos:station:TCOON:013:1,2017-04-19T03:18:00Z,27.4847,-97.3181,0.822,1111122 
TCOON,ioos:station:TCOON:013:1,2017-04-19T04:18:00Z,27.4847,-97.3181,0.821,1111122 
TCOON,ioos:station:TCOON:013:1,2017-04-19T05:18:00Z,27.4847,-97.3181,0.819,1111122 
TCOON,ioos:station:TCOON:013:1,2017-04-19T06:18:00Z,27.4847,-97.3181,0.816,1111122 
TCOON,ioos:station:TCOON:013:1,2017-04-19T07:18:00Z,27.4847,-97.3181,0.813,1111122 
TCOON,ioos:station:TCOON:013:1,2017-04-19T08:18:00Z,27.4847,-97.3181,0.809,1111122 
TCOON,ioos:station:TCOON:013:1,2017-04-19T09:18:00Z,27.4847,-97.3181,0.805,1111122 
TCOON,ioos:station:TCOON:013:1,2017-04-19T10:18:00Z,27.4847,-97.3181,0.799,1111122 
TCOON,ioos:station:TCOON:013:1,2017-04-19T11:24:00Z,27.4847,-97.3181,0.793,1111122 
TCOON,ioos:station:TCOON:013:1,2017-04-19T21:24:00Z,27.4847,-97.3181,0.782,1111122 